Year,Month,Day,Hour,Minute,Value (Times are PST for temperature in C)
2017,05,05,00,00,14.10
2017,05,05,00,01,14.10
2017,05,05,00,02,14.10
2017,05,05,00,03,14.00
2017,05,05,00,04,14.00
2017,05,05,00,05,13.90
2017,05,05,00,06,13.90
2017,05,05,00,07,13.90
2017,05,05,00,08,13.90
2017,05,05,00,09,13.90
2017,05,05,00,10,13.90
2017,05,05,00,11,13.90
2017,05,05,00,12,13.90
2017,05,05,00,13,13.90
2017,05,05,00,14,13.90
2017,05,05,00,15,13.80
2017,05,05,00,16,13.80
2017,05,05,00,17,13.80
2017,05,05,00,18,13.80
2017,05,05,00,19,13.80
2017,05,05,00,20,13.80
2017,05,05,00,21,13.80
2017,05,05,00,22,13.80
2017,05,05,00,23,13.80
2017,05,05,00,24,13.80
2017,05,05,00,25,13.70
2017,05,05,00,26,13.70
2017,05,05,00,27,13.60
2017,05,05,00,28,13.60
2017,05,05,00,29,13.60
2017,05,05,00,30,13.50
2017,05,05,00,31,13.60
2017,05,05,00,32,13.80
2017,05,05,00,33,13.80
2017,05,05,00,34,13.90
2017,05,05,00,35,13.90
2017,05,05,00,36,13.90
2017,05,05,00,37,14.00
2017,05,05,00,38,14.00
2017,05,05,00,39,14.00
2017,05,05,00,40,14.00
2017,05,05,00,41,14.00
2017,05,05,00,42,14.00
2017,05,05,00,43,14.00
2017,05,05,00,44,14.00
2017,05,05,00,45,14.00
2017,05,05,00,46,14.00
2017,05,05,00,47,14.00
2017,05,05,00,48,14.00
2017,05,05,00,49,14.00
2017,05,05,00,50,14.00
2017,05,05,00,51,14.00
2017,05,05,00,52,14.00
2017,05,05,00,53,14.00
2017,05,05,00,54,14.10
2017,05,05,00,55,14.10
2017,05,05,00,56,14.10
2017,05,05,00,57,14.10
2017,05,05,00,58,14.00
2017,05,05,00,59,14.00
2017,05,05,01,00,14.00
2017,05,05,01,01,13.90
2017,05,05,01,02,13.90
2017,05,05,01,03,13.90
2017,05,05,01,04,13.90
2017,05,05,01,05,13.90
2017,05,05,01,06,13.90
2017,05,05,01,07,13.90
2017,05,05,01,08,13.90
2017,05,05,01,09,13.90
2017,05,05,01,10,13.90
2017,05,05,01,11,13.90
2017,05,05,01,12,13.90
2017,05,05,01,13,13.90
2017,05,05,01,14,13.90
2017,05,05,01,15,13.90
2017,05,05,01,16,13.90
2017,05,05,01,17,14.00
2017,05,05,01,18,14.00
2017,05,05,01,19,14.00
2017,05,05,01,20,14.00
2017,05,05,01,21,14.10
2017,05,05,01,22,14.10
2017,05,05,01,23,14.10
2017,05,05,01,24,14.10
2017,05,05,01,25,14.10
2017,05,05,01,26,14.10
2017,05,05,01,27,14.10
2017,05,05,01,28,14.10
2017,05,05,01,29,14.10
2017,05,05,01,30,14.10
2017,05,05,01,31,14.10
2017,05,05,01,32,14.20
2017,05,05,01,33,14.20
2017,05,05,01,34,14.20
2017,05,05,01,35,14.20
2017,05,05,01,36,14.20
2017,05,05,01,37,14.20
2017,05,05,01,38,14.10
2017,05,05,01,39,14.10
2017,05,05,01,40,14.10
2017,05,05,01,41,14.10
2017,05,05,01,42,14.10
2017,05,05,01,43,14.10
2017,05,05,01,44,14.10
2017,05,05,01,45,14.10
2017,05,05,01,46,14.10
2017,05,05,01,47,14.10
2017,05,05,01,48,14.10
2017,05,05,01,49,14.10
2017,05,05,01,50,14.10
2017,05,05,01,51,14.10
2017,05,05,01,52,14.10
2017,05,05,01,53,14.10
2017,05,05,01,54,14.10
2017,05,05,01,55,14.10
2017,05,05,01,56,14.10
2017,05,05,01,57,14.10
2017,05,05,01,58,14.00
2017,05,05,01,59,14.00
2017,05,05,02,00,14.00
2017,05,05,02,01,14.00
2017,05,05,02,02,14.00
2017,05,05,02,03,14.00
2017,05,05,02,04,14.00
2017,05,05,02,05,14.00
2017,05,05,02,06,14.00
2017,05,05,02,07,14.00
2017,05,05,02,08,14.00
2017,05,05,02,09,14.00
2017,05,05,02,10,14.00
2017,05,05,02,11,14.00
2017,05,05,02,12,14.00
2017,05,05,02,13,14.00
2017,05,05,02,14,14.00
2017,05,05,02,15,14.00
2017,05,05,02,16,14.00
2017,05,05,02,17,14.00
2017,05,05,02,18,14.00
2017,05,05,02,19,14.00
2017,05,05,02,20,14.00
2017,05,05,02,21,14.00
2017,05,05,02,22,14.00
2017,05,05,02,23,14.00
2017,05,05,02,24,14.00
2017,05,05,02,25,14.00
2017,05,05,02,26,14.10
2017,05,05,02,27,14.10
2017,05,05,02,28,14.10
2017,05,05,02,29,14.10
2017,05,05,02,30,14.10
2017,05,05,02,31,14.10
2017,05,05,02,32,14.10
2017,05,05,02,33,14.10
2017,05,05,02,34,14.10
2017,05,05,02,35,14.10
2017,05,05,02,36,14.20
2017,05,05,02,37,14.20
2017,05,05,02,38,14.20
2017,05,05,02,39,14.30
2017,05,05,02,40,14.30
2017,05,05,02,41,14.40
2017,05,05,02,42,14.40
2017,05,05,02,43,14.50
2017,05,05,02,44,14.60
2017,05,05,02,45,14.70
2017,05,05,02,46,14.80
2017,05,05,02,47,14.80
2017,05,05,02,48,14.90
2017,05,05,02,49,14.90
2017,05,05,02,50,15.00
2017,05,05,02,51,15.00
2017,05,05,02,52,15.10
2017,05,05,02,53,15.10
2017,05,05,02,54,15.10
2017,05,05,02,55,15.20
2017,05,05,02,56,15.20
2017,05,05,02,57,15.20
2017,05,05,02,58,15.20
2017,05,05,02,59,15.30
2017,05,05,03,00,15.30
2017,05,05,03,01,15.30
2017,05,05,03,02,15.40
2017,05,05,03,03,15.40
2017,05,05,03,04,15.50
2017,05,05,03,05,15.50
2017,05,05,03,06,15.60
2017,05,05,03,07,15.60
2017,05,05,03,08,15.60
2017,05,05,03,09,15.60
2017,05,05,03,10,15.60
2017,05,05,03,11,15.60
2017,05,05,03,12,15.50
2017,05,05,03,13,15.50
2017,05,05,03,14,15.50
2017,05,05,03,15,15.50
2017,05,05,03,16,15.50
2017,05,05,03,17,15.50
2017,05,05,03,18,15.50
2017,05,05,03,19,15.50
2017,05,05,03,20,15.40
2017,05,05,03,21,15.40
2017,05,05,03,22,15.40
2017,05,05,03,23,15.40
2017,05,05,03,24,15.40
2017,05,05,03,25,15.40
2017,05,05,03,26,15.40
2017,05,05,03,27,15.40
2017,05,05,03,28,15.40
2017,05,05,03,29,15.40
2017,05,05,03,30,15.40
2017,05,05,03,31,15.40
2017,05,05,03,32,15.40
2017,05,05,03,33,15.40
2017,05,05,03,34,15.40
2017,05,05,03,35,15.40
2017,05,05,03,36,15.40
2017,05,05,03,37,15.40
2017,05,05,03,38,15.30
2017,05,05,03,39,15.30
2017,05,05,03,40,15.30
2017,05,05,03,41,15.30
2017,05,05,03,42,15.30
2017,05,05,03,43,15.30
2017,05,05,03,44,15.30
2017,05,05,03,45,15.30
2017,05,05,03,46,15.30
2017,05,05,03,47,15.30
2017,05,05,03,48,15.30
2017,05,05,03,49,15.30
2017,05,05,03,50,15.30
2017,05,05,03,51,15.20
2017,05,05,03,52,15.20
2017,05,05,03,53,15.20
2017,05,05,03,54,15.20
2017,05,05,03,55,15.20
2017,05,05,03,56,15.20
2017,05,05,03,57,15.20
2017,05,05,03,58,15.20
2017,05,05,03,59,15.20
2017,05,05,04,00,15.20
2017,05,05,04,01,15.20
2017,05,05,04,02,15.10
2017,05,05,04,03,15.10
2017,05,05,04,04,15.10
2017,05,05,04,05,15.10
2017,05,05,04,06,15.10
2017,05,05,04,07,15.10
2017,05,05,04,08,15.00
2017,05,05,04,09,15.00
2017,05,05,04,10,15.00
2017,05,05,04,11,14.90
2017,05,05,04,12,14.90
2017,05,05,04,13,14.90
2017,05,05,04,14,14.90
2017,05,05,04,15,14.90
2017,05,05,04,16,14.90
2017,05,05,04,17,14.90
2017,05,05,04,18,14.90
2017,05,05,04,19,14.80
2017,05,05,04,20,14.80
2017,05,05,04,21,14.80
2017,05,05,04,22,14.80
2017,05,05,04,23,14.80
2017,05,05,04,24,14.80
2017,05,05,04,25,14.80
2017,05,05,04,26,14.80
2017,05,05,04,27,14.80
2017,05,05,04,28,14.80
2017,05,05,04,29,14.80
2017,05,05,04,30,14.80
2017,05,05,04,31,14.80
2017,05,05,04,32,14.80
2017,05,05,04,33,14.80
2017,05,05,04,34,14.70
2017,05,05,04,35,14.70
2017,05,05,04,36,14.70
2017,05,05,04,37,14.70
2017,05,05,04,38,14.70
2017,05,05,04,39,14.70
2017,05,05,04,40,14.70
2017,05,05,04,41,14.70
2017,05,05,04,42,14.70
2017,05,05,04,43,14.60
2017,05,05,04,44,14.60
2017,05,05,04,45,14.60
2017,05,05,04,46,14.60
2017,05,05,04,47,14.60
2017,05,05,04,48,14.60
2017,05,05,04,49,14.60
2017,05,05,04,50,14.60
2017,05,05,04,51,14.60
2017,05,05,04,52,14.50
2017,05,05,04,53,14.50
2017,05,05,04,54,14.50
2017,05,05,04,55,14.50
2017,05,05,04,56,14.50
2017,05,05,04,57,14.50
2017,05,05,04,58,14.50
2017,05,05,04,59,14.50
2017,05,05,05,00,14.50
2017,05,05,05,01,14.50
2017,05,05,05,02,14.40
2017,05,05,05,03,14.40
2017,05,05,05,04,14.40
2017,05,05,05,05,14.40
2017,05,05,05,06,14.40
2017,05,05,05,07,14.40
2017,05,05,05,08,14.40
2017,05,05,05,09,14.30
2017,05,05,05,10,14.30
2017,05,05,05,11,14.30
2017,05,05,05,12,14.30
2017,05,05,05,13,14.30
2017,05,05,05,14,14.30
2017,05,05,05,15,14.30
2017,05,05,05,16,14.30
2017,05,05,05,17,14.30
2017,05,05,05,18,14.30
2017,05,05,05,19,14.30
2017,05,05,05,20,14.30
2017,05,05,05,21,14.20
2017,05,05,05,22,14.20
2017,05,05,05,23,14.20
2017,05,05,05,24,14.20
2017,05,05,05,25,14.20
2017,05,05,05,26,14.20
2017,05,05,05,27,14.20
2017,05,05,05,28,14.20
2017,05,05,05,29,14.10
2017,05,05,05,30,14.10
2017,05,05,05,31,14.10
2017,05,05,05,32,14.10
2017,05,05,05,33,14.10
2017,05,05,05,34,14.10
2017,05,05,05,35,14.10
2017,05,05,05,36,14.10
2017,05,05,05,37,14.10
2017,05,05,05,38,14.10
2017,05,05,05,39,14.10
2017,05,05,05,40,14.10
2017,05,05,05,41,14.00
2017,05,05,05,42,14.00
2017,05,05,05,43,14.00
2017,05,05,05,44,14.00
2017,05,05,05,45,14.00
2017,05,05,05,46,14.00
2017,05,05,05,47,14.00
2017,05,05,05,48,14.00
2017,05,05,05,49,14.00
2017,05,05,05,50,14.00
2017,05,05,05,51,13.90
2017,05,05,05,52,13.90
2017,05,05,05,53,13.90
2017,05,05,05,54,13.90
2017,05,05,05,55,13.90
2017,05,05,05,56,13.90
2017,05,05,05,57,13.90
2017,05,05,05,58,13.90
2017,05,05,05,59,13.90
2017,05,05,06,00,13.90
2017,05,05,06,01,13.90
2017,05,05,06,02,13.90
2017,05,05,06,03,13.80
2017,05,05,06,04,13.80
2017,05,05,06,05,13.80
2017,05,05,06,06,13.80
2017,05,05,06,07,13.80
2017,05,05,06,08,13.80
2017,05,05,06,09,13.70
2017,05,05,06,10,13.70
2017,05,05,06,11,13.70
2017,05,05,06,12,13.70
2017,05,05,06,13,13.70
2017,05,05,06,14,13.70
2017,05,05,06,15,13.70
2017,05,05,06,16,13.70
2017,05,05,06,17,13.70
2017,05,05,06,18,13.70
2017,05,05,06,19,13.70
2017,05,05,06,20,13.70
2017,05,05,06,21,13.70
2017,05,05,06,22,13.70
2017,05,05,06,23,13.70
2017,05,05,06,24,13.70
2017,05,05,06,25,13.70
2017,05,05,06,26,13.60
2017,05,05,06,27,13.60
2017,05,05,06,28,13.60
2017,05,05,06,29,13.70
2017,05,05,06,30,13.70
2017,05,05,06,31,13.70
2017,05,05,06,32,13.70
2017,05,05,06,33,13.70
2017,05,05,06,34,13.70
2017,05,05,06,35,13.70
2017,05,05,06,36,13.70
2017,05,05,06,37,13.70
2017,05,05,06,38,13.70
2017,05,05,06,39,13.70
2017,05,05,06,40,13.70
2017,05,05,06,41,13.70
2017,05,05,06,42,13.70
2017,05,05,06,43,13.80
2017,05,05,06,44,13.80
2017,05,05,06,45,13.80
2017,05,05,06,46,13.80
2017,05,05,06,47,13.80
2017,05,05,06,48,13.80
2017,05,05,06,49,13.80
2017,05,05,06,50,13.80
2017,05,05,06,51,13.80
2017,05,05,06,52,13.80
2017,05,05,06,53,13.90
2017,05,05,06,54,13.90
2017,05,05,06,55,13.90
2017,05,05,06,56,13.90
2017,05,05,06,57,13.90
2017,05,05,06,58,14.00
2017,05,05,06,59,14.00
2017,05,05,07,00,14.00
2017,05,05,07,01,14.00
2017,05,05,07,02,14.10
2017,05,05,07,03,14.10
2017,05,05,07,04,14.10
2017,05,05,07,05,14.10
2017,05,05,07,06,14.10
2017,05,05,07,07,14.10
2017,05,05,07,08,14.10
2017,05,05,07,09,14.20
2017,05,05,07,10,14.20
2017,05,05,07,11,14.20
2017,05,05,07,12,14.20
2017,05,05,07,13,14.20
2017,05,05,07,14,14.20
2017,05,05,07,15,14.30
2017,05,05,07,16,14.30
2017,05,05,07,17,14.30
2017,05,05,07,18,14.30
2017,05,05,07,19,14.40
2017,05,05,07,20,14.40
2017,05,05,07,21,14.50
2017,05,05,07,22,14.50
2017,05,05,07,23,14.60
2017,05,05,07,24,14.60
2017,05,05,07,25,14.70
2017,05,05,07,26,14.70
2017,05,05,07,27,14.70
2017,05,05,07,28,14.80
2017,05,05,07,29,14.80
2017,05,05,07,30,14.80
2017,05,05,07,31,14.80
2017,05,05,07,32,14.70
2017,05,05,07,33,14.70
2017,05,05,07,34,14.70
2017,05,05,07,35,14.70
2017,05,05,07,36,14.70
2017,05,05,07,37,14.70
2017,05,05,07,38,14.70
2017,05,05,07,39,14.70
2017,05,05,07,40,14.80
2017,05,05,07,41,14.80
2017,05,05,07,42,14.80
2017,05,05,07,43,14.80
2017,05,05,07,44,14.80
2017,05,05,07,45,14.80
2017,05,05,07,46,14.80
2017,05,05,07,47,14.90
2017,05,05,07,48,14.90
2017,05,05,07,49,14.90
2017,05,05,07,50,14.90
2017,05,05,07,51,14.90
2017,05,05,07,52,14.90
2017,05,05,07,53,14.80
2017,05,05,07,54,14.80
2017,05,05,07,55,14.80
2017,05,05,07,56,14.80
2017,05,05,07,57,14.80
2017,05,05,07,58,14.70
2017,05,05,07,59,14.70
2017,05,05,08,00,14.60
2017,05,05,08,01,14.60
2017,05,05,08,02,14.60
2017,05,05,08,03,14.50
2017,05,05,08,04,14.50
2017,05,05,08,05,14.40
2017,05,05,08,06,14.40
2017,05,05,08,07,14.30
2017,05,05,08,08,14.30
2017,05,05,08,09,14.20
2017,05,05,08,10,14.20
2017,05,05,08,11,14.10
2017,05,05,08,12,14.10
2017,05,05,08,13,14.00
2017,05,05,08,14,13.90
2017,05,05,08,15,13.90
2017,05,05,08,16,13.90
2017,05,05,08,17,13.90
2017,05,05,08,18,13.90
2017,05,05,08,19,13.90
2017,05,05,08,20,13.90
2017,05,05,08,21,13.90
2017,05,05,08,22,14.00
2017,05,05,08,23,14.00
2017,05,05,08,24,14.10
2017,05,05,08,25,14.20
2017,05,05,08,26,14.30
2017,05,05,08,27,14.40
2017,05,05,08,28,14.40
2017,05,05,08,29,14.40
2017,05,05,08,30,14.40
2017,05,05,08,31,14.40
2017,05,05,08,32,14.40
2017,05,05,08,33,14.40
2017,05,05,08,34,14.40
2017,05,05,08,35,14.40
2017,05,05,08,36,14.40
2017,05,05,08,37,14.40
2017,05,05,08,38,14.40
2017,05,05,08,39,14.40
2017,05,05,08,40,14.40
2017,05,05,08,41,14.40
2017,05,05,08,42,14.40
2017,05,05,08,43,14.30
2017,05,05,08,44,14.30
2017,05,05,08,45,14.30
2017,05,05,08,46,14.40
2017,05,05,08,47,14.40
2017,05,05,08,48,14.30
2017,05,05,08,49,14.30
2017,05,05,08,50,14.30
2017,05,05,08,51,14.30
2017,05,05,08,52,14.30
2017,05,05,08,53,14.30
2017,05,05,08,54,14.20
2017,05,05,08,55,14.20
2017,05,05,08,56,14.20
2017,05,05,08,57,14.20
2017,05,05,08,58,14.20
2017,05,05,08,59,14.20
2017,05,05,09,00,14.20
2017,05,05,09,01,14.20
2017,05,05,09,02,14.20
2017,05,05,09,03,14.20
2017,05,05,09,04,14.20
2017,05,05,09,05,14.20
2017,05,05,09,06,14.20
2017,05,05,09,07,14.20
2017,05,05,09,08,14.10
2017,05,05,09,09,14.10
2017,05,05,09,10,14.10
2017,05,05,09,11,14.00
2017,05,05,09,12,14.00
2017,05,05,09,13,13.90
2017,05,05,09,14,13.90
2017,05,05,09,15,13.90
2017,05,05,09,16,13.90
2017,05,05,09,17,13.90
2017,05,05,09,18,13.90
2017,05,05,09,19,13.90
2017,05,05,09,20,13.90
2017,05,05,09,21,13.90
2017,05,05,09,22,13.90
2017,05,05,09,23,13.90
2017,05,05,09,24,13.90
2017,05,05,09,25,13.90
2017,05,05,09,26,13.90
2017,05,05,09,27,13.80
2017,05,05,09,28,13.80
2017,05,05,09,29,13.80
2017,05,05,09,30,13.80
2017,05,05,09,31,13.80
2017,05,05,09,32,13.80
2017,05,05,09,33,13.80
2017,05,05,09,34,13.80
2017,05,05,09,35,13.80
2017,05,05,09,36,13.80
2017,05,05,09,37,13.80
2017,05,05,09,38,13.80
2017,05,05,09,39,13.80
2017,05,05,09,40,13.80
2017,05,05,09,41,13.80
2017,05,05,09,42,13.90
2017,05,05,09,43,14.00
2017,05,05,09,44,14.10
2017,05,05,09,45,14.10
2017,05,05,09,46,14.20
2017,05,05,09,47,14.30
2017,05,05,09,48,14.30
2017,05,05,09,49,14.40
2017,05,05,09,50,14.40
2017,05,05,09,51,14.30
2017,05,05,09,52,14.20
2017,05,05,09,53,14.10
2017,05,05,09,54,14.00
2017,05,05,09,55,14.00
2017,05,05,09,56,13.90
2017,05,05,09,57,14.00
2017,05,05,09,58,14.10
2017,05,05,09,59,14.10
2017,05,05,10,00,14.10
2017,05,05,10,01,14.10
2017,05,05,10,02,14.10
2017,05,05,10,03,14.20
2017,05,05,10,04,14.20
2017,05,05,10,05,14.20
2017,05,05,10,06,14.20
2017,05,05,10,07,14.30
2017,05,05,10,08,14.30
2017,05,05,10,09,14.40
2017,05,05,10,10,14.50
2017,05,05,10,11,14.50
2017,05,05,10,12,14.60
2017,05,05,10,13,14.70
2017,05,05,10,14,14.70
2017,05,05,10,15,14.60
2017,05,05,10,16,14.60
2017,05,05,10,17,14.60
2017,05,05,10,18,14.50
2017,05,05,10,19,14.40
2017,05,05,10,20,14.50
2017,05,05,10,21,14.50
2017,05,05,10,22,14.60
2017,05,05,10,23,14.60
2017,05,05,10,24,14.60
2017,05,05,10,25,14.60
2017,05,05,10,26,14.60
2017,05,05,10,27,14.70
2017,05,05,10,28,14.70
2017,05,05,10,29,14.70
2017,05,05,10,30,14.70
2017,05,05,10,31,14.70
2017,05,05,10,32,14.60
2017,05,05,10,33,14.50
2017,05,05,10,34,14.40
2017,05,05,10,35,14.30
2017,05,05,10,36,14.20
2017,05,05,10,37,14.20
2017,05,05,10,38,14.30
2017,05,05,10,39,14.30
2017,05,05,10,40,14.30
2017,05,05,10,41,14.40
2017,05,05,10,42,14.50
2017,05,05,10,43,14.60
2017,05,05,10,44,14.60
2017,05,05,10,45,14.60
2017,05,05,10,46,14.60
2017,05,05,10,47,14.50
2017,05,05,10,48,14.40
2017,05,05,10,49,14.40
2017,05,05,10,50,14.20
2017,05,05,10,51,14.20
2017,05,05,10,52,14.10
2017,05,05,10,53,14.10
2017,05,05,10,54,14.10
2017,05,05,10,55,14.10
2017,05,05,10,56,14.10
2017,05,05,10,57,14.10
2017,05,05,10,58,14.10
2017,05,05,10,59,14.00
2017,05,05,11,00,13.90
2017,05,05,11,01,13.90
2017,05,05,11,02,13.80
2017,05,05,11,03,13.80
2017,05,05,11,04,13.80
2017,05,05,11,05,13.80
2017,05,05,11,06,13.80
2017,05,05,11,07,13.70
2017,05,05,11,08,13.70
2017,05,05,11,09,13.60
2017,05,05,11,10,13.50
2017,05,05,11,11,13.40
2017,05,05,11,12,13.30
2017,05,05,11,13,13.20
2017,05,05,11,14,13.20
2017,05,05,11,15,13.20
2017,05,05,11,16,13.20
2017,05,05,11,17,13.20
2017,05,05,11,18,13.20
2017,05,05,11,19,13.20
2017,05,05,11,20,13.20
2017,05,05,11,21,13.20
2017,05,05,11,22,13.20
2017,05,05,11,23,13.20
2017,05,05,11,24,13.20
2017,05,05,11,25,13.20
2017,05,05,11,26,13.10
2017,05,05,11,27,13.10
2017,05,05,11,28,13.10
2017,05,05,11,29,13.10
2017,05,05,11,30,13.10
2017,05,05,11,31,13.00
2017,05,05,11,32,13.00
2017,05,05,11,33,12.90
2017,05,05,11,34,12.90
2017,05,05,11,35,13.00
2017,05,05,11,36,13.00
2017,05,05,11,37,13.00
2017,05,05,11,38,13.10
2017,05,05,11,39,13.10
2017,05,05,11,40,13.10
2017,05,05,11,41,13.10
2017,05,05,11,42,13.10
2017,05,05,11,43,13.20
2017,05,05,11,44,13.20
2017,05,05,11,45,13.10
2017,05,05,11,46,13.10
2017,05,05,11,47,13.10
2017,05,05,11,48,13.10
2017,05,05,11,49,13.10
2017,05,05,11,50,13.10
2017,05,05,11,51,13.20
2017,05,05,11,52,13.20
2017,05,05,11,53,13.30
2017,05,05,11,54,13.50
2017,05,05,11,55,13.60
2017,05,05,11,56,13.80
2017,05,05,11,57,13.90
2017,05,05,11,58,14.00
2017,05,05,11,59,14.00
2017,05,05,12,00,14.10
2017,05,05,12,01,14.10
2017,05,05,12,02,14.10
2017,05,05,12,03,14.10
2017,05,05,12,04,14.00
2017,05,05,12,05,14.00
2017,05,05,12,06,13.90
2017,05,05,12,07,13.90
2017,05,05,12,08,13.70
2017,05,05,12,09,13.60
2017,05,05,12,10,13.50
2017,05,05,12,11,13.50
2017,05,05,12,12,13.40
2017,05,05,12,13,13.40
2017,05,05,12,14,13.40
2017,05,05,12,15,13.50
2017,05,05,12,16,13.50
2017,05,05,12,17,13.50
2017,05,05,12,18,13.50
2017,05,05,12,19,13.60
2017,05,05,12,20,13.60
2017,05,05,12,21,13.60
2017,05,05,12,22,13.70
2017,05,05,12,23,13.70
2017,05,05,12,24,13.90
2017,05,05,12,25,14.00
2017,05,05,12,26,14.20
2017,05,05,12,27,14.30
2017,05,05,12,28,14.30
2017,05,05,12,29,14.20
2017,05,05,12,30,14.10
2017,05,05,12,31,14.20
2017,05,05,12,32,14.20
2017,05,05,12,33,14.20
2017,05,05,12,34,14.20
2017,05,05,12,35,14.30
2017,05,05,12,36,14.30
2017,05,05,12,37,14.30
2017,05,05,12,38,14.30
2017,05,05,12,39,14.30
2017,05,05,12,40,14.30
2017,05,05,12,41,14.30
2017,05,05,12,42,14.30
2017,05,05,12,43,14.30
2017,05,05,12,44,14.40
2017,05,05,12,45,14.40
2017,05,05,12,46,14.40
2017,05,05,12,47,14.40
2017,05,05,12,48,14.40
2017,05,05,12,49,14.40
2017,05,05,12,50,14.40
2017,05,05,12,51,14.40
2017,05,05,12,52,14.50
2017,05,05,12,53,14.60
2017,05,05,12,54,14.60
2017,05,05,12,55,14.60
2017,05,05,12,56,14.70
2017,05,05,12,57,14.70
2017,05,05,12,58,14.80
2017,05,05,12,59,14.80
2017,05,05,13,00,14.80
2017,05,05,13,01,14.60
2017,05,05,13,02,14.40
2017,05,05,13,03,14.30
2017,05,05,13,04,14.30
2017,05,05,13,05,14.30
2017,05,05,13,06,14.30
2017,05,05,13,07,14.40
2017,05,05,13,08,14.50
2017,05,05,13,09,14.60
2017,05,05,13,10,14.60
2017,05,05,13,11,14.60
2017,05,05,13,12,14.50
2017,05,05,13,13,14.50
2017,05,05,13,14,14.60
2017,05,05,13,15,14.60
2017,05,05,13,16,14.70
2017,05,05,13,17,14.80
2017,05,05,13,18,14.90
2017,05,05,13,19,15.00
2017,05,05,13,20,15.10
2017,05,05,13,21,15.20
2017,05,05,13,22,15.20
2017,05,05,13,23,15.20
2017,05,05,13,24,15.10
2017,05,05,13,25,14.80
2017,05,05,13,26,14.60
2017,05,05,13,27,14.70
2017,05,05,13,28,14.70
2017,05,05,13,29,14.60
2017,05,05,13,30,14.30
2017,05,05,13,31,14.10
2017,05,05,13,32,14.00
2017,05,05,13,33,13.90
2017,05,05,13,34,13.90
2017,05,05,13,35,13.80
2017,05,05,13,36,13.70
2017,05,05,13,37,13.60
2017,05,05,13,38,13.60
2017,05,05,13,39,13.70
2017,05,05,13,40,13.70
2017,05,05,13,41,13.70
2017,05,05,13,42,13.70
2017,05,05,13,43,13.60
2017,05,05,13,44,13.60
2017,05,05,13,45,13.70
2017,05,05,13,46,13.80
2017,05,05,13,47,13.80
2017,05,05,13,48,13.90
2017,05,05,13,49,13.90
2017,05,05,13,50,13.90
2017,05,05,13,51,13.80
2017,05,05,13,52,13.80
2017,05,05,13,53,13.90
2017,05,05,13,54,13.90
2017,05,05,13,55,14.00
2017,05,05,13,56,14.10
2017,05,05,13,57,14.20
2017,05,05,13,58,14.20
2017,05,05,13,59,14.20
2017,05,05,14,00,14.30
2017,05,05,14,01,14.30
2017,05,05,14,02,14.20
2017,05,05,14,03,14.10
2017,05,05,14,04,14.00
2017,05,05,14,05,14.00
2017,05,05,14,06,14.10
2017,05,05,14,07,14.20
2017,05,05,14,08,14.40
2017,05,05,14,09,14.60
2017,05,05,14,10,14.60
2017,05,05,14,11,14.60
2017,05,05,14,12,14.40
2017,05,05,14,13,14.20
2017,05,05,14,14,14.10
2017,05,05,14,15,14.00
2017,05,05,14,16,14.00
2017,05,05,14,17,14.10
2017,05,05,14,18,14.10
2017,05,05,14,19,14.20
2017,05,05,14,20,14.10
2017,05,05,14,21,14.10
2017,05,05,14,22,14.00
2017,05,05,14,23,13.90
2017,05,05,14,24,13.90
2017,05,05,14,25,13.90
2017,05,05,14,26,13.90
2017,05,05,14,27,13.80
2017,05,05,14,28,13.80
2017,05,05,14,29,13.80
2017,05,05,14,30,13.90
2017,05,05,14,31,14.00
2017,05,05,14,32,14.00
2017,05,05,14,33,14.10
2017,05,05,14,34,14.30
2017,05,05,14,35,14.40
2017,05,05,14,36,14.50
2017,05,05,14,37,14.70
2017,05,05,14,38,14.80
2017,05,05,14,39,14.80
2017,05,05,14,40,14.70
2017,05,05,14,41,14.60
2017,05,05,14,42,14.50
2017,05,05,14,43,14.40
2017,05,05,14,44,14.30
2017,05,05,14,45,14.20
2017,05,05,14,46,14.00
2017,05,05,14,47,13.80
2017,05,05,14,48,13.60
2017,05,05,14,49,13.50
2017,05,05,14,50,13.50
2017,05,05,14,51,13.50
2017,05,05,14,52,13.60
2017,05,05,14,53,13.50
2017,05,05,14,54,13.40
2017,05,05,14,55,13.20
2017,05,05,14,56,13.10
2017,05,05,14,57,13.00
2017,05,05,14,58,12.90
2017,05,05,14,59,12.90
2017,05,05,15,00,12.90
2017,05,05,15,01,12.90
2017,05,05,15,02,12.90
2017,05,05,15,03,12.90
2017,05,05,15,04,12.80
2017,05,05,15,05,12.80
2017,05,05,15,06,12.90
2017,05,05,15,07,12.90
2017,05,05,15,08,13.00
2017,05,05,15,09,13.00
2017,05,05,15,10,13.00
2017,05,05,15,11,13.10
2017,05,05,15,12,13.20
2017,05,05,15,13,13.10
2017,05,05,15,14,13.00
2017,05,05,15,15,13.10
2017,05,05,15,16,13.10
2017,05,05,15,17,13.20
2017,05,05,15,18,13.30
2017,05,05,15,19,13.30
2017,05,05,15,20,13.40
2017,05,05,15,21,13.30
2017,05,05,15,22,13.40
2017,05,05,15,23,13.30
2017,05,05,15,24,13.40
2017,05,05,15,25,13.50
2017,05,05,15,26,13.50
2017,05,05,15,27,13.50
2017,05,05,15,28,13.50
2017,05,05,15,29,13.60
2017,05,05,15,30,13.60
2017,05,05,15,31,13.70
2017,05,05,15,32,13.60
2017,05,05,15,33,13.50
2017,05,05,15,34,13.50
2017,05,05,15,35,13.40
2017,05,05,15,36,13.30
2017,05,05,15,37,13.40
2017,05,05,15,38,13.40
2017,05,05,15,39,13.60
2017,05,05,15,40,13.60
2017,05,05,15,41,13.70
2017,05,05,15,42,13.80
2017,05,05,15,43,13.70
2017,05,05,15,44,13.60
2017,05,05,15,45,13.60
2017,05,05,15,46,13.50
2017,05,05,15,47,13.40
2017,05,05,15,48,13.40
2017,05,05,15,49,13.50
2017,05,05,15,50,13.50
2017,05,05,15,51,13.50
2017,05,05,15,52,13.40
2017,05,05,15,53,13.50
2017,05,05,15,54,13.60
2017,05,05,15,55,13.70
2017,05,05,15,56,13.70
2017,05,05,15,57,13.60
2017,05,05,15,58,13.50
2017,05,05,15,59,13.50
2017,05,05,16,00,13.60
2017,05,05,16,01,13.50
2017,05,05,16,02,13.40
2017,05,05,16,03,13.30
2017,05,05,16,04,13.20
2017,05,05,16,05,13.20
2017,05,05,16,06,13.20
2017,05,05,16,07,13.20
2017,05,05,16,08,13.30
2017,05,05,16,09,13.30
2017,05,05,16,10,13.30
2017,05,05,16,11,13.30
2017,05,05,16,12,13.30
2017,05,05,16,13,13.30
2017,05,05,16,14,13.30
2017,05,05,16,15,13.20
2017,05,05,16,16,13.10
2017,05,05,16,17,13.00
2017,05,05,16,18,13.00
2017,05,05,16,19,13.10
2017,05,05,16,20,13.20
2017,05,05,16,21,13.30
2017,05,05,16,22,13.40
2017,05,05,16,23,13.40
2017,05,05,16,24,13.40
2017,05,05,16,25,13.30
2017,05,05,16,26,13.10
2017,05,05,16,27,12.90
2017,05,05,16,28,12.80
2017,05,05,16,29,12.80
2017,05,05,16,30,12.80
2017,05,05,16,31,12.90
2017,05,05,16,32,13.00
2017,05,05,16,33,13.00
2017,05,05,16,34,13.00
2017,05,05,16,35,12.90
2017,05,05,16,36,12.80
2017,05,05,16,37,12.80
2017,05,05,16,38,12.90
2017,05,05,16,39,12.90
2017,05,05,16,40,12.90
2017,05,05,16,41,12.90
2017,05,05,16,42,12.80
2017,05,05,16,43,12.80
2017,05,05,16,44,12.80
2017,05,05,16,45,12.90
2017,05,05,16,46,12.90
2017,05,05,16,47,13.00
2017,05,05,16,48,13.00
2017,05,05,16,49,13.00
2017,05,05,16,50,13.00
2017,05,05,16,51,13.10
2017,05,05,16,52,13.00
2017,05,05,16,53,13.00
2017,05,05,16,54,13.00
2017,05,05,16,55,13.00
2017,05,05,16,56,13.10
2017,05,05,16,57,13.10
2017,05,05,16,58,13.10
2017,05,05,16,59,13.10
2017,05,05,17,00,13.00
2017,05,05,17,01,12.90
2017,05,05,17,02,12.90
2017,05,05,17,03,12.80
2017,05,05,17,04,12.80
2017,05,05,17,05,12.70
2017,05,05,17,06,12.60
2017,05,05,17,07,12.60
2017,05,05,17,08,12.50
2017,05,05,17,09,12.40
2017,05,05,17,10,12.40
2017,05,05,17,11,12.40
2017,05,05,17,12,12.40
2017,05,05,17,13,12.30
2017,05,05,17,14,12.30
2017,05,05,17,15,12.30
2017,05,05,17,16,12.40
2017,05,05,17,17,12.40
2017,05,05,17,18,12.30
2017,05,05,17,19,12.40